カタログに戻る

COSMOS 2251 DEB

運用中LEO
NORAD 34726·DEBRIS·🇷🇺 Russia

打ち上げ Jun 16, 1993 から Plesetsk Cosmodrome

Loading…

次のパス (今後24時間)

TLE

最新Source: Space-Track

元期: Sep 14, 2026, 13:59 UTC

1 34726U 93036YU  26257.58319517  .00000946  00000-0  19885-3 0  9997
2 34726  74.0282 179.6395 0044576 258.9736 100.6415 14.60469083925287

AllMySatでCOSMOS 2251 DEBをリアルタイム追跡

Download on the App Store